[[{"header":{"parameterUnit":"m.s-1","parameterCategory":1,"la1":30.2991,"la2":30.254,"lo1":-89.0895,"lo2":-89.0444,"dx":0.0017,"dy":0.0017,"nx":28,"ny":28,"refTime":"2022-12-03T09:00:00:Z","depth":0,"parameterNumber":2,"parameterNumberName":"U-component_of_WINDS"},"data":[0,0,0,0,0,0,0,0,0,0,0,0,0,0,0,0,0,0,0,0,0,0,0,0,0,0,0,0,0,0,0,0,0,0,0,0,0,0,0,0,0,0,0,0,0,0,0,0,0,0,0,0,0,0,0,0,0,0,0.44,0.44,0,0.4439,0.444,0.444,0.4423,0.4422,0.4421,0.442,0.4466,0.4468,0.447,0,0,0,0,0,0,0,0,0,0,0,0,0,0.4314,0.4316,0.44,0.44,0.4401,0.4439,0.444,0.444,0.4423,0.4422,0.442,0.4419,0.4465,0.4468,0.4471,0,0,0,0,0,0,0,0,0,0,0,0,0,0.4352,0.4316,0.44,0.4396,0.4396,0.4439,0.444,0.4441,0.4423,0.4421,0.442,0.4419,0.4465,0.4468,0.4471,0.4521,0,0,0.4481,0.4482,0,0,0,0,0,0,0,0,0.435,0.4356,0.4396,0.4397,0.4397,0.4424,0.4427,0.4468,0.4423,0.4413,0.442,0.4418,0.4454,0.4458,0.4469,0.4523,0.4525,0.4481,0.4483,0.4485,0.4485,0,0,0,0,0,0,0,0.4348,0.4354,0.4416,0.4397,0.4397,0.4395,0.4399,0.4434,0.4442,0.4414,0.4413,0.4417,0.4454,0.4466,0.447,0.4526,0.4481,0.4484,0.4486,0.4487,0.4623,0.4625,0,0,0,0,0,0,0.4344,0.4352,0.4414,0.4417,0.4369,0.4397,0.4402,0.4417,0.4441,0.4443,0.4419,0.4416,0.4461,0.4466,0.4471,0.4531,0.4485,0.4488,0.4489,0.4622,0.4624,0.4626,0,0,0,0,0,0,0.4342,0.435,0.4413,0.4384,0.4392,0.44,0.4418,0.4419,0.4431,0.4445,0.4446,0.4429,0.446,0.4467,0.4508,0.4532,0.4489,0.4492,0.462,0.4622,0.4625,0.4651,0,0,0,0,0,0,0.434,0.4349,0.4367,0.4384,0.4393,0.4447,0.442,0.4421,0.4436,0.4433,0.4455,0.4457,0.4459,0.4504,0.4512,0.4536,0.4495,0.4618,0.4621,0.4624,0.4648,0.4654,0.4659,0,0,0,0,0,0.4337,0.4374,0.4368,0.4376,0.4415,0.4449,0.4454,0.4454,0.4438,0.4456,0.4465,0.4456,0.4529,0.4508,0.4517,0.4543,0.4616,0.462,0.4624,0.4645,0.4653,0.4659,0,0,0,0,0,0,0.4362,0.4377,0.437,0.4413,0.443,0.4446,0.4469,0.4462,0.4485,0.4482,0.4483,0.4488,0.4531,0.4541,0.4518,0.4592,0.457,0.4576,0.4584,0.4591,0.4596,0.4593,0.4497,0,0,0,0,0,0.4372,0.4396,0.4409,0.4446,0.4454,0.446,0.4475,0.4473,0.4491,0.4499,0.4511,0.453,0.4557,0.4575,0.46,0.465,0.4654,0.4672,0.4678,0.4682,0.4687,0.4714,0.4722,0.4638,0.4638,0.4638,0,0,0.4394,0.4405,0.4421,0.4451,0.4463,0.449,0.4466,0.4496,0.4515,0.4504,0.4543,0.4553,0.4574,0.462,0.464,0.463,0.4711,0.4687,0.469,0.4693,0.4718,0.4726,0.4733,0.464,0.464,0.464,0,0,0.4447,0.4458,0.4489,0.4502,0.4521,0.4524,0.4532,0.4549,0.4554,0.4593,0.4585,0.461,0.4657,0.4672,0.4686,0.4745,0.4738,0.4754,0.4783,0.4809,0.4816,0.4821,0.4842,0.4849,0.4759,0.4759,0.4759,0,0.4472,0.451,0.4507,0.4537,0.4551,0.4539,0.4572,0.4586,0.4613,0.4623,0.461,0.4668,0.4682,0.4731,0.4745,0.4757,0.4766,0.4751,0.4814,0.482,0.4826,0.4845,0.4853,0.476,0.476,0.476,0.476,0,0.454,0.4566,0.459,0.4614,0.4631,0.4662,0.4666,0.4684,0.4681,0.4687,0.4727,0.4743,0.4772,0.4783,0.4782,0.4832,0.4825,0.4814,0.4791,0.4835,0.4854,0.4861,0.4763,0.4762,0.4762,0.4761,0,0,0.4609,0.463,0.4639,0.4649,0.4669,0.469,0.4722,0.4748,0.4763,0.4782,0.4809,0.4848,0.4838,0.4854,0.4854,0.4877,0.4922,0.4863,0.4863,0.4873,0.4978,0.4986,0.4995,0.4918,0.4919,0.4921,0.4976,0,0.4662,0.4714,0.4713,0.4763,0.4787,0.4777,0.4805,0.4821,0.4827,0.4851,0.4859,0.4886,0.487,0.488,0.4902,0.4912,0.4943,0.4908,0.4944,0.4945,0.4937,0.5004,0.5013,0.5064,0.4984,0.4985,0.4986,0,0.4732,0.4751,0.4802,0.4817,0.4828,0.4852,0.4875,0.4898,0.4916,0.4919,0.4937,0.4934,0.4967,0.4944,0.4991,0.4967,0.4982,0.4989,0.4991,0.4994,0.4967,0.5008,0.5081,0.5088,0.4997,0.4996,0.4995,0,0.4776,0.4815,0.485,0.486,0.4879,0.4896,0.4906,0.4922,0.4938,0.496,0.497,0.4996,0.501,0.5031,0.5035,0.5018,0.5082,0.506,0.5086,0.5086,0.5099,0.5098,0.5175,0.5111,0.5111,0.511,0.511,0,0.4835,0.4867,0.487,0.4891,0.4927,0.4927,0.4962,0.497,0.4986,0.501,0.5004,0.5027,0.5032,0.5057,0.5061,0.5099,0.5106,0.511,0.5111,0.511,0.5109,0.5119,0.5115,0.5112,0.5112,0.5112,0.5111,0,0.489,0.4893,0.4931,0.4946,0.495,0.4976,0.4989,0.5011,0.5017,0.5047,0.5055,0.5065,0.5094,0.51,0.5136,0.5138,0.5183,0.5181,0.5176,0.5175,0.5201,0.5198,0.5286,0.5297,0.5226,0.5227,0.5228,0,0.4927,0.495,0.4967,0.4982,0.4991,0.5016,0.5031,0.5033,0.5049,0.5072,0.5091,0.5119,0.5141,0.5188,0.5199,0.5226,0.5224,0.5253,0.5228,0.5226,0.5223,0.5221,0.5224,0.5257,0.5258,0.5259,0.5259,0,0.4992,0.4992,0.5013,0.5035,0.5053,0.5071,0.5088,0.5101,0.5105,0.5125,0.5153,0.517,0.5205,0.5233,0.526,0.5271,0.5266,0.5267,0.5274,0.5273,0.5269,0.5271,0.5187,0.5265,0.5264,0.5264,0.5263,0.5263,0.5038,0.5058,0.5073,0.5097,0.511,0.5126,0.5146,0.5154,0.5177,0.5204,0.5204,0.5235,0.5254,0.5289,0.5303,0.5328,0.5319,0.533,0.5333,0.5335,0.5337,0.5266,0.5333,0.5333,0.5333,0.5333,0.5333,0,0.5102,0.5111,0.5133,0.5156,0.5175,0.5167,0.5186,0.5203,0.5229,0.5246,0.5268,0.5301,0.5328,0.5341,0.5368,0.5386,0.5384,0.5393,0.5391,0.5394,0.5344,0.5334,0.5394,0.5394,0.5394,0.5394,0.5394,0.5394,0.5137,0.5171,0.5173,0.5214,0.5223,0.5251,0.5263,0.5278,0.5291,0.5327,0.5349,0.5357,0.5373,0.5401,0.5426,0.543,0.544,0.5449,0.5452,0.5404,0.5398,0.5392,0.5382,0.5452,0.5452,0.55,0.55,0.55]},{"header":{"parameterUnit":"m.s-1","parameterCategory":1,"la1":30.2991,"la2":30.254,"lo1":-89.0895,"lo2":-89.0444,"dx":0.0017,"dy":0.0017,"nx":28,"ny":28,"refTime":"2022-12-03T09:00:00:Z","depth":0,"parameterNumber":3,"parameterNumberName":"V-component_of_WINDS"},"data":[0,0,0,0,0,0,0,0,0,0,0,0,0,0,0,0,0,0,0,0,0,0,0,0,0,0,0,0,0,0,0,0,0,0,0,0,0,0,0,0,0,0,0,0,0,0,0,0,0,0,0,0,0,0,0,0,0,0,0.2982,0.2981,0,0.2901,0.2901,0.29,0.2859,0.286,0.286,0.286,0.2771,0.2768,0.2766,0,0,0,0,0,0,0,0,0,0,0,0,0,0.3094,0.3092,0.2982,0.2981,0.298,0.2902,0.29,0.2899,0.2859,0.286,0.286,0.286,0.2771,0.2769,0.2766,0,0,0,0,0,0,0,0,0,0,0,0,0,0.3032,0.3091,0.2982,0.2951,0.2947,0.2902,0.29,0.2899,0.2859,0.286,0.286,0.286,0.2772,0.2769,0.2765,0.2743,0,0,0.2755,0.2753,0,0,0,0,0,0,0,0,0.3036,0.3028,0.2956,0.2953,0.2949,0.2891,0.2907,0.2847,0.2859,0.2892,0.286,0.286,0.281,0.2803,0.2788,0.2739,0.2735,0.2754,0.2752,0.2751,0.275,0,0,0,0,0,0,0,0.304,0.3031,0.295,0.2955,0.295,0.2938,0.293,0.2896,0.2852,0.289,0.2887,0.2878,0.2808,0.2792,0.2786,0.2734,0.2754,0.2751,0.2749,0.2748,0.2661,0.2661,0,0,0,0,0,0,0.305,0.3035,0.2952,0.2947,0.2993,0.2936,0.2927,0.2909,0.2852,0.2844,0.2878,0.2876,0.2798,0.279,0.2782,0.2752,0.2751,0.2747,0.2745,0.2661,0.2661,0.2661,0,0,0,0,0,0,0.3053,0.3043,0.2955,0.299,0.2978,0.2934,0.2915,0.2907,0.2891,0.2844,0.2835,0.287,0.2797,0.2787,0.2754,0.2749,0.2746,0.2742,0.2662,0.2661,0.2661,0.2692,0,0,0,0,0,0,0.3056,0.3044,0.3037,0.2991,0.2977,0.293,0.2915,0.2906,0.2886,0.2883,0.2834,0.2825,0.2797,0.2759,0.275,0.2744,0.274,0.2662,0.2661,0.2661,0.2691,0.2693,0.2694,0,0,0,0,0,0.306,0.3048,0.3037,0.3027,0.2967,0.293,0.2922,0.2891,0.2886,0.2877,0.2846,0.2827,0.2751,0.2756,0.2745,0.2738,0.2662,0.2662,0.2661,0.2691,0.2693,0.2694,0,0,0,0,0,0,0.3093,0.3041,0.3029,0.3001,0.2971,0.2923,0.2911,0.2894,0.2862,0.2861,0.2822,0.2811,0.278,0.2755,0.2762,0.2713,0.2704,0.2702,0.273,0.2732,0.2733,0.274,0.2737,0,0,0,0,0,0.3097,0.3074,0.3029,0.3009,0.2994,0.2956,0.2938,0.2917,0.2883,0.2869,0.2836,0.2801,0.2769,0.2749,0.2717,0.2688,0.2675,0.2677,0.2679,0.268,0.2678,0.2659,0.2659,0.266,0.266,0.266,0,0,0.3105,0.3074,0.3061,0.3014,0.2988,0.2963,0.2945,0.2918,0.2898,0.2864,0.2831,0.2805,0.2764,0.2732,0.2716,0.271,0.2675,0.268,0.2681,0.2678,0.2659,0.2659,0.2659,0.266,0.266,0.266,0,0,0.3106,0.3081,0.3062,0.3036,0.2997,0.2972,0.2967,0.2923,0.2905,0.2871,0.2845,0.2819,0.2765,0.2737,0.2716,0.2706,0.2687,0.2697,0.2704,0.2687,0.2687,0.2686,0.2682,0.2681,0.2695,0.2695,0.2695,0,0.3121,0.3083,0.3053,0.3029,0.3008,0.2978,0.2957,0.2933,0.2885,0.287,0.2865,0.2797,0.2767,0.2728,0.2726,0.2709,0.2701,0.2702,0.269,0.2689,0.2688,0.2684,0.2682,0.2696,0.2696,0.2696,0.2696,0,0.3102,0.3076,0.3065,0.3022,0.3,0.2977,0.2941,0.2922,0.2903,0.2877,0.2842,0.2805,0.2765,0.2754,0.2734,0.2712,0.2709,0.2697,0.2688,0.269,0.2685,0.2683,0.2698,0.2698,0.2697,0.2697,0,0,0.3121,0.3063,0.3059,0.3039,0.2994,0.2972,0.2947,0.291,0.2894,0.2861,0.2838,0.2793,0.2782,0.2758,0.2734,0.2719,0.2713,0.2708,0.2707,0.271,0.2684,0.2693,0.2692,0.27,0.2699,0.2699,0.2687,0,0.3116,0.3073,0.3044,0.3011,0.2986,0.2957,0.2935,0.2904,0.2879,0.2852,0.2823,0.2792,0.278,0.2765,0.2749,0.2717,0.2707,0.2717,0.2675,0.2674,0.2687,0.2689,0.2699,0.269,0.2685,0.2685,0.2684,0,0.3104,0.3075,0.304,0.2998,0.2986,0.2967,0.293,0.2906,0.2869,0.2852,0.2825,0.2801,0.2771,0.2765,0.2722,0.273,0.2711,0.2692,0.2691,0.2686,0.2679,0.2683,0.2686,0.2684,0.2681,0.2681,0.2682,0,0.3121,0.3073,0.3045,0.3029,0.2979,0.2966,0.2944,0.2908,0.2887,0.2854,0.284,0.2804,0.2783,0.2754,0.2721,0.2719,0.268,0.2671,0.2664,0.2664,0.2656,0.2657,0.2656,0.2645,0.2645,0.2645,0.2645,0,0.3118,0.3097,0.3052,0.3035,0.3011,0.2978,0.2953,0.2929,0.2897,0.2873,0.2844,0.2822,0.2779,0.2751,0.2724,0.2692,0.2683,0.2666,0.2659,0.2669,0.2671,0.2655,0.2655,0.2645,0.2645,0.2645,0.2645,0,0.3132,0.3102,0.307,0.3026,0.3014,0.2998,0.2959,0.294,0.2914,0.2884,0.2875,0.2833,0.2798,0.2762,0.2714,0.2696,0.2664,0.2655,0.2678,0.2674,0.2668,0.2669,0.2656,0.2652,0.2645,0.2645,0.2645,0,0.3132,0.3116,0.3071,0.3054,0.3034,0.3007,0.2986,0.2952,0.2931,0.2888,0.2874,0.2838,0.2807,0.2752,0.2716,0.2679,0.2668,0.2666,0.2662,0.2671,0.2667,0.2668,0.2666,0.2667,0.2667,0.2667,0.2668,0,0.3135,0.3121,0.3094,0.3061,0.3038,0.301,0.298,0.2967,0.2927,0.2905,0.287,0.2847,0.2799,0.2762,0.2721,0.2695,0.2674,0.2669,0.2665,0.2675,0.2688,0.268,0.2681,0.267,0.2669,0.2669,0.2669,0.2669,0.3141,0.3126,0.3092,0.3062,0.3037,0.301,0.299,0.2963,0.2934,0.2894,0.2875,0.284,0.2802,0.2745,0.272,0.269,0.2684,0.2679,0.2677,0.2676,0.2678,0.2694,0.2682,0.2682,0.2682,0.2682,0.2682,0,0.3142,0.3119,0.3092,0.3053,0.3029,0.3014,0.2981,0.2961,0.2932,0.2899,0.287,0.283,0.2794,0.2755,0.2717,0.27,0.269,0.2691,0.2692,0.2686,0.2686,0.2693,0.2701,0.2701,0.2701,0.2701,0.2701,0.2701,0.314,0.3112,0.3094,0.3053,0.3029,0.2996,0.2978,0.2953,0.2927,0.2884,0.2855,0.2831,0.2795,0.2754,0.272,0.2709,0.2696,0.27,0.2687,0.2687,0.2686,0.2685,0.2691,0.2698,0.2698,0.2689,0.2689,0.2689]}]]